ZHUHAI-1 01 (CAS 4A) (42761 NORAD) Tracking and Keplerian Element Data

This shows tracking and keplerian element data for the satellite.

Feedback or suggestion? Click here.




ElementValue
Catalog42761
NameZHUHAI-1 01 (CAS 4A)
Epoch Orbit8276
Epoch Day348.97685365
Epoch Year2018
RAAN170.3153
Inclination43.0172
Eccentricity0.0009964
Argument of Perigee168.9413
Mean Anonmoly322.3083
Mean Motion15.09518175
Decay Rate1.29E-06
L11 42761U 17034D 18348.97685365 .00000129 00000-0 21452-4 0 9998
L22 42761 43.0172 170.3153 0009964 168.9413 322.3083 15.09518175 82765

Live tracking and technical data element details for ZHUHAI-1 01 (CAS 4A) (NORAD 42761). ZHUHAI-1 01 (CAS 4A) can be tracked NOW for your location showing map with azimuth and elevation plus other details from your city location.

Track the satellite on the map from your city or location and see movement details for azimuth, elevation, latitude, longitude, range, height, and movement on the map or in text.







IsCatalogInMostPopularTable: catalog: 42761, numindb: 163
Update: records affected: 1



GetName: 42761 ZHUHAI-1 01 (CAS 4A)

Hit Count: updated at: Sat, 15 Dec 2018 14:26:54 GMT